Location: La Pernelle
(49.6188°N, 1.2999°W)
Time: 10:39:43
(UTC+00:00)

Cosmos 1954 Rocket - Pass Details

Date: 30 October 2021
Orbit: 751 x 782 km, 74.0° (Epoch: 26 November)

Event Time Altitude Azimuth Distance (km) Brightness Sun altitude
Rises 18:00:38 0° 339° (NNW) 3,244 7.4 -12.5°
Reaches altitude 10° 18:03:08 10° 347° (NNW) 2,319 6.6 -12.9°
Maximum altitude 18:08:08 42° 58° (ENE) 1,091 4.4 -13.7°
Enters shadow 18:12:48 12° 128° (SE) 2,200 5.9 -14.5°
